Temperature
12 11 11 12 13 14 15 15 16 16 15 15 14 14 15 16 16 16 17 17 16 16 15 15 14 13 13 12 12 12 12 11 11 11 11 11 11 10 10 10 10 10 10 10
11 10 12 14 14 14 14 14 15 15 15 14 14 14 15 15 15 16 16 17 16 16 15 14 14 13 13 12 12 12 11 11 11 11 11 10 10 10 10 10 10 10 9 9
11 12 13 14 14 14 14 13 14 14 14 14 13 13 14 15 15 16 16 16 16 15 15 14 13 13 12 12 11 11 11 11 11 10 10 10 10 9 9 9 9 9 9 9
11 13 13 13 13 13 13 14 14 14 12 11 13 11 14 15 14 14 15 15 15 15 14 14 13 12 12 11 11 11 11 10 10 10 10 10 9 9 9 9 9 9 8 8
11 12 12 12 13 13 13 14 14 13 12 11 12 11 12 14 14 14 13 14 14 14 14 13 12 12 11 11 10 10 10 10 10 10 10 9 9 9 9 8 8 8 8 8
11 12 12 12 13 13 12 12 12 12 11 9 11 11 12 13 14 14 13 14 14 14 13 13 12 11 11 10 10 10 9 9 9 9 9 9 9 8 8 8 8 8 8 8
10 10 11 12 11 11 11 10 9 8 8 9 12 12 12 13 14 13 13 13 13 13 13 12 11 11 10 10 9 9 9 9 9 9 9 8 8 8 8 8 7 7 7 7
8 8 10 10 10 9 10 10 9 8 9 10 12 11 12 13 13 13 13 13 12 12 12 11 11 10 9 9 9 9 9 8 8 8 8 8 8 7 7 7 7 7 7 6
8 9 10 10 11 11 9 9 11 10 10 10 11 12 12 12 12 12 12 12 11 11 11 10 10 9 9 8 8 8 8 8 8 8 8 8 7 7 7 7 7 6 6 6
9 8 9 9 10 10 10 10 9 8 9 10 12 12 11 10 10 11 10 10 11 10 10 9 9 9 8 8 8 7 7 7 7 7 7 7 7 7 7 6 6 6 6 6
8 6 7 8 8 8 8 9 9 8 9 9 10 11 12 10 10 10 9 10 10 9 9 9 8 8 8 7 7 7 7 7 7 7 7 7 6 6 6 6 6 5 5 5
8 6 6 7 8 8 9 9 8 7 7 8 9 9 11 10 9 9 9 10 9 8 8 8 7 7 7 6 6 6 6 6 6 6 6 6 6 6 6 5 5 5 5 5
6 5 5 5 6 6 7 8 8 7 7 7 8 9 10 9 9 9 9 9 8 8 7 7 7 7 6 6 6 5 5 5 5 5 5 5 5 5 5 5 5 5 4 4
6 4 5 5 6 5 5 6 7 7 6 7 8 9 9 9 8 8 9 8 7 7 7 6 6 6 6 5 5 5 5 5 5 5 5 5 5 5 4 4 4 4 4 4
4 3 4 5 7 6 6 6 6 6 6 7 8 9 9 8 8 8 8 7 7 6 6 5 5 5 5 5 5 4 4 4 4 4 4 4 4 4 4 4 4 4 3 3
3 3 4 4 6 6 6 6 6 6 7 7 8 8 8 8 8 8 7 7 6 5 5 5 4 4 4 4 4 4 4 4 4 4 4 4 4 3 3 3 3 3 3 3
2 2 3 4 4 4 4 5 6 6 6 7 6 7 7 6 6 7 6 6 6 5 4 4 4 4 4 3 3 3 3 3 3 3 3 3 3 3 3 3 2 2 2 2
2 2 2 3 3 3 4 5 5 5 5 5 5 6 6 5 6 6 5 5 4 4 4 3 3 3 3 3 3 3 3 3 3 3 3 3 2 2 2 2 2 2 1 1
2 2 2 2 3 3 4 4 4 4 3 4 4 4 4 5 5 4 4 4 4 3 3 3 3 3 2 2 2 2 2 2 2 2 2 2 2 2 1 1 1 1 1 1
2 1 2 2 3 3 3 3 4 4 3 3 3 3 3 4 2 2 3 3 3 2 2 2 2 2 2 2 1 1 1 1 1 1 1 1 1 1 1 1 1 1 0 0
1 1 1 2 2 2 2 3 4 2 2 2 3 3 2 2 1 2 2 2 1 1 1 1 1 1 1 1 1 1 1 1 1 1 1 1 0 0 0 0 0 -0 -0 -0
1 1 1 1 1 1 1 2 1 1 2 2 2 2 1 1 1 1 1 0 0 0 0 0 0 0 0 0 0 0 0 -0 -0 0 0 0 0 -0 -0 -0 -0 -0 -1 -1
1 0 0 0 1 1 1 1 1 1 1 1 1 0 0 -0 -0 -0 -1 -1 -1 -1 -1 -1 -0 -0 -0 -1 -1 -0 -1 -1 -1 -0 -0 -0 -0 -1 -1 -1 -1 -1 -1 -1
1 1 1 0 0 1 0 0 0 0 -0 -0 -0 -1 -1 -1 -1 -1 -2 -2 -2 -2 -1 -1 -1 -1 -1 -1 -1 -1 -1 -1 -1 -1 -1 -1 -1 -1 -1 -1 -2 -2 -2 -2
0 0 -0 -1 -1 -1 -0 -1 -1 -1 -1 -1 -1 -1 -2 -2 -2 -2 -3 -3 -2 -2 -2 -2 -2 -2 -2 -2 -2 -2 -2 -2 -2 -2 -2 -2 -2 -2 -2 -2 -2 -2 -2 -3
-2 -2 -1 -1 -2 -2 -2 -2 -2 -2 -2 -2 -2 -2 -2 -2 -3 -3 -3 -3 -3 -3 -3 -2 -2 -2 -3 -3 -3 -3 -3 -3 -3 -3 -3 -3 -3 -3 -3 -3 -3 -3 -3 -3
Wind_Speed
9 8 12 14 16 11 7 8 9 4 6 7 10 10 9 8 8 9 9 9 9 9 9 10 10 9 9 10 10 9 9 7 6 4 4 3 2 1 1 2 3 2 2 2
8 14 13 11 12 13 12 9 7 1 4 4 6 11 9 9 10 9 8 8 9 8 9 9 9 10 10 10 9 9 9 8 7 5 4 3 3 2 1 1 2 2 1 1
12 6 10 12 11 12 12 10 8 4 2 4 5 8 11 10 11 9 9 7 7 9 9 9 9 8 9 10 10 9 8 8 7 6 4 3 2 2 1 1 1 1 1 0
12 8 7 11 12 10 10 7 6 3 3 4 6 5 6 8 10 10 9 8 7 7 8 9 9 9 8 8 8 8 8 7 7 6 5 5 3 2 2 2 1 1 1 1
7 8 8 11 11 9 3 1 3 3 5 4 6 5 6 7 8 9 8 8 7 6 7 9 10 9 8 7 7 8 8 7 6 6 6 5 3 2 1 1 1 1 1 1
6 4 6 6 4 5 4 3 1 2 3 6 9 8 5 5 8 9 8 7 7 6 6 8 9 9 8 7 7 7 7 6 6 6 5 5 4 3 2 2 2 2 1 2
6 6 4 3 5 5 6 6 3 3 4 8 7 7 5 2 3 6 8 7 7 7 6 8 9 9 8 8 7 6 7 6 6 5 5 4 4 3 3 3 2 2 2 2
8 7 9 7 7 7 9 8 6 6 6 4 5 7 3 3 5 6 7 7 7 6 6 7 8 9 8 8 7 7 6 6 5 5 4 4 3 3 2 2 1 2 2 2
7 5 7 8 5 6 7 8 4 2 2 2 5 4 2 4 5 5 7 7 6 6 6 7 8 8 8 7 6 6 6 5 5 5 4 3 3 2 2 2 1 2 2 2
1 3 6 4 3 4 4 4 3 4 5 5 6 8 7 9 8 7 7 6 6 6 6 7 7 7 7 6 5 5 5 4 5 4 3 3 3 2 2 2 2 2 2 3
1 3 5 5 8 9 6 5 5 4 4 4 4 2 2 8 9 8 7 7 7 6 6 6 6 6 6 6 5 4 4 4 3 3 2 2 2 1 1 2 2 2 3 3
3 2 4 5 2 2 5 6 6 5 5 4 2 1 3 8 8 8 7 8 8 7 6 5 5 6 6 5 4 4 3 4 3 2 2 2 1 1 1 2 2 2 3 3
3 3 4 3 2 2 3 5 5 2 1 3 3 2 3 7 8 7 8 8 7 7 6 5 5 4 5 4 4 3 3 3 2 2 1 1 1 1 1 2 3 3 3 3
2 2 5 7 4 5 5 6 6 5 4 4 5 4 4 5 6 6 7 7 7 6 5 5 4 4 4 4 3 3 2 2 2 2 1 0 1 1 2 2 2 3 3 4
2 3 3 3 2 3 6 9 10 9 7 5 4 4 4 4 5 6 6 6 6 5 5 5 4 4 3 3 3 2 2 2 1 1 0 1 1 1 2 2 2 3 4 5
1 2 2 3 3 2 4 7 11 10 9 8 5 4 2 3 4 5 6 6 5 5 4 4 4 4 3 3 2 2 2 1 1 1 0 1 1 2 2 2 2 3 4 5
1 2 3 3 3 1 4 6 8 7 6 7 7 4 2 2 3 3 4 5 5 5 4 4 3 3 2 2 2 2 2 1 1 1 1 1 1 2 2 3 3 4 4 5
3 1 1 2 3 5 3 0 3 5 3 1 1 1 2 2 2 4 4 4 4 4 4 3 3 3 2 2 2 2 2 2 1 1 2 2 2 2 3 3 3 4 4 4
3 2 1 2 3 3 1 1 0 3 2 1 1 1 1 3 3 4 5 5 4 4 4 3 3 3 2 2 2 2 2 2 2 2 2 2 2 3 3 3 4 4 4 5
2 2 2 2 2 3 0 2 2 2 1 2 1 1 1 1 1 0 4 6 5 5 4 3 3 3 3 3 3 2 2 2 2 3 3 3 3 3 4 4 4 4 4 5
2 2 3 3 2 1 3 3 2 3 2 2 2 2 2 2 2 2 5 5 5 5 5 4 4 3 3 3 3 3 3 3 3 3 3 4 3 3 4 4 4 4 5 5
2 2 2 2 2 2 3 2 2 1 2 4 4 4 5 4 4 5 5 5 5 5 5 5 4 3 4 3 3 3 3 4 3 3 3 4 4 4 4 4 4 4 4 5
2 2 1 2 2 2 3 3 3 4 4 4 4 5 5 4 4 4 4 4 4 4 4 4 4 4 4 4 3 3 4 4 4 4 4 4 4 4 4 4 4 4 4 4
0 0 1 1 2 3 4 5 6 6 5 5 5 5 5 4 3 3 3 3 3 4 4 4 4 4 4 4 4 3 4 4 4 4 4 4 4 4 4 3 3 3 4 4
1 1 1 1 1 2 3 4 5 6 6 6 6 6 5 4 3 3 3 3 3 3 3 3 3 3 4 4 4 5 5 4 4 4 4 4 4 4 4 4 4 4 4 5
2 2 0 1 1 1 2 3 5 5 5 5 5 5 5 4 3 3 2 2 2 2 3 3 3 3 4 4 5 5 5 5 4 5 5 4 3 4 4 4 5 7 7 9
Wind_Direction
190 204 208 206 213 236 253 241 235 208 156 190 221 237 228 214 209 211 209 197 191 187 172 163 159 152 144 141 144 149 149 149 140 138 137 133 138 140 121 107 115 99 74 48
191 221 220 218 215 233 258 259 255 188 139 183 241 253 241 218 214 208 207 203 192 181 166 160 157 154 151 149 151 152 152 149 145 146 145 143 142 148 146 128 124 123 98 33
205 210 212 223 219 220 234 241 243 224 153 226 256 265 235 220 211 209 208 207 193 176 167 159 157 155 152 154 157 156 151 150 148 143 131 121 102 93 87 150 179 161 153 251
225 224 208 214 221 214 228 232 240 220 197 232 201 261 233 205 199 200 200 198 196 182 165 159 158 154 154 153 149 147 149 150 147 141 139 142 150 173 200 182 197 232 190 218
220 209 208 216 216 214 216 224 218 218 237 265 226 241 255 203 196 192 187 186 185 174 160 157 156 153 146 136 140 145 148 148 145 144 148 154 163 183 170 161 188 231 236 230
236 222 208 216 213 206 154 127 147 239 245 248 220 215 252 210 191 174 168 167 165 160 152 146 145 139 132 130 134 142 147 149 148 148 153 160 165 162 164 192 210 232 246 248
216 214 192 182 174 175 177 155 150 187 218 238 204 207 233 192 142 149 153 157 152 152 147 141 139 140 139 139 143 145 147 148 150 150 159 166 169 168 185 203 211 230 258 271
190 203 189 193 192 179 199 193 181 186 206 219 192 215 211 129 101 103 115 124 132 136 132 130 135 139 140 142 145 148 150 152 155 159 166 169 164 165 186 203 223 238 248 254
194 203 173 191 203 174 183 220 248 280 283 236 216 194 181 124 120 123 121 117 125 130 124 124 125 128 133 139 144 148 150 154 157 160 158 164 161 162 182 206 228 246 249 267
218 180 172 171 195 243 220 189 177 188 197 226 222 203 192 172 173 151 142 137 128 120 119 121 124 125 127 134 138 143 145 148 149 149 159 166 172 176 187 211 226 239 250 265
236 164 158 168 201 195 190 199 196 193 222 206 225 209 58 147 147 144 142 136 127 119 117 118 123 122 121 126 135 137 133 124 129 146 157 163 174 182 194 222 232 239 252 259
193 158 181 199 210 262 218 205 188 183 222 221 241 267 57 97 106 109 115 117 117 119 114 109 112 117 122 127 131 130 127 125 134 137 145 153 162 179 219 241 254 252 256 260
167 166 155 173 191 253 237 230 215 204 186 209 200 187 94 101 106 104 108 110 108 109 110 105 104 109 116 123 125 123 121 120 119 117 117 134 172 209 240 253 264 268 268 275
158 184 196 198 200 179 206 216 206 189 206 228 218 178 161 133 122 114 110 112 114 114 111 108 106 106 105 107 111 112 104 104 109 111 126 180 246 255 261 268 270 275 277 279
134 199 227 276 301 186 200 204 201 204 209 211 238 228 198 161 135 124 114 110 112 116 113 106 98 90 89 87 89 91 95 93 97 110 130 243 281 299 297 291 290 291 289 288
141 193 210 261 282 263 228 210 208 216 222 232 251 282 56 92 103 115 121 123 125 125 115 101 90 85 77 69 69 72 60 53 62 75 350 335 338 327 311 297 295 295 290 289
183 178 188 211 193 229 244 225 210 209 214 215 230 233 97 67 63 104 117 122 130 134 123 108 95 89 79 64 58 43 30 30 32 8 349 352 337 317 307 309 300 286 285 289
173 175 193 169 157 208 220 329 193 196 211 197 174 167 124 121 76 71 82 98 99 104 105 101 90 79 65 52 45 35 34 26 7 355 348 342 330 311 308 304 294 292 292 291
180 173 197 186 203 232 224 359 144 181 210 338 191 125 85 97 75 56 55 69 77 79 82 80 78 79 60 51 39 27 19 15 0 349 341 333 325 311 306 300 295 295 300 300
164 167 198 215 214 217 312 325 320 132 203 4 62 167 151 102 153 128 51 58 62 59 62 61 56 62 54 40 33 25 7 6 354 343 336 325 312 304 300 296 297 298 297 295
157 186 211 221 221 252 355 336 54 142 228 1 54 65 76 72 105 88 65 58 57 56 52 52 54 51 37 29 29 16 3 350 341 342 333 327 322 309 299 299 303 304 304 302
162 170 188 190 200 240 347 59 103 124 50 48 52 61 74 78 73 62 57 52 49 52 48 46 47 35 21 19 28 14 347 335 343 343 334 330 326 319 317 310 307 305 306 303
167 181 162 166 173 78 57 79 61 61 56 53 59 65 77 72 68 61 54 48 43 43 42 39 40 25 13 10 19 4 332 337 344 343 337 329 324 321 316 310 308 311 310 305
282 10 133 114 94 74 69 52 46 51 52 48 60 69 72 68 63 60 56 47 35 35 37 32 31 24 9 5 6 349 332 336 339 333 324 320 320 317 315 310 306 307 305 304
347 76 118 134 83 55 54 49 48 48 50 49 49 52 60 61 59 60 50 36 33 32 26 27 24 11 357 356 354 350 347 350 342 328 319 317 315 312 312 310 301 297 286 294
8 13 35 106 35 61 40 37 49 55 49 46 50 41 36 48 52 51 40 24 21 18 18 18 10 360 349 351 351 349 346 344 336 328 323 318 316 312 311 312 316 316 310 311
Height
1446 1449 1447 1444 1445 1443 1441 1442 1442 1441 1442 1447 1451 1450 1448 1448 1449 1451 1453 1455 1458 1461 1465 1468 1472 1475 1477 1480 1482 1484 1487 1489 1491 1493 1495 1497 1498 1500 1501 1502 1503 1503 1503 1503
1444 1443 1439 1439 1440 1441 1442 1443 1443 1443 1443 1447 1449 1448 1444 1443 1444 1446 1448 1451 1454 1458 1461 1464 1468 1471 1473 1476 1479 1482 1484 1486 1489 1491 1493 1495 1497 1498 1499 1500 1501 1501 1501 1500
1436 1434 1434 1436 1437 1440 1441 1443 1442 1444 1446 1447 1450 1449 1441 1437 1439 1441 1444 1447 1450 1453 1456 1460 1464 1467 1470 1472 1475 1478 1481 1484 1486 1489 1491 1493 1494 1495 1497 1497 1498 1498 1498 1498
1432 1430 1431 1433 1435 1437 1442 1438 1439 1443 1451 1454 1451 1458 1437 1433 1434 1437 1440 1443 1446 1449 1453 1456 1460 1463 1466 1470 1473 1475 1478 1481 1484 1486 1488 1489 1491 1492 1493 1494 1495 1495 1495 1495
1429 1428 1430 1432 1432 1434 1438 1437 1440 1444 1449 1453 1449 1455 1441 1430 1433 1434 1436 1438 1442 1446 1449 1452 1456 1459 1463 1467 1470 1473 1476 1479 1481 1483 1485 1487 1489 1490 1491 1491 1492 1492 1492 1492
1427 1426 1427 1429 1431 1433 1437 1441 1443 1446 1452 1461 1447 1451 1442 1430 1427 1430 1432 1436 1439 1443 1446 1450 1453 1457 1461 1464 1467 1470 1473 1475 1478 1480 1483 1484 1486 1487 1487 1488 1488 1488 1488 1488
1428 1426 1426 1428 1433 1435 1438 1448 1459 1463 1465 1457 1436 1441 1437 1425 1423 1425 1429 1433 1437 1441 1444 1448 1451 1454 1457 1461 1464 1467 1470 1472 1475 1477 1479 1481 1483 1484 1484 1485 1485 1485 1484 1484
1429 1430 1427 1427 1429 1434 1437 1440 1451 1457 1455 1443 1434 1437 1431 1423 1423 1425 1428 1432 1436 1439 1443 1446 1449 1452 1455 1458 1461 1464 1467 1469 1472 1474 1476 1478 1480 1481 1481 1482 1482 1481 1481 1481
1424 1425 1423 1425 1426 1430 1436 1438 1433 1440 1438 1443 1436 1429 1428 1424 1425 1427 1429 1433 1436 1439 1442 1445 1448 1451 1453 1456 1459 1462 1464 1467 1469 1471 1473 1475 1476 1477 1478 1478 1478 1478 1478 1477
1419 1426 1424 1425 1428 1429 1430 1432 1439 1445 1445 1441 1428 1425 1428 1427 1427 1427 1430 1433 1436 1439 1442 1444 1447 1450 1452 1455 1458 1460 1462 1464 1466 1468 1470 1471 1473 1474 1474 1475 1474 1474 1474 1473
1420 1427 1429 1428 1429 1429 1432 1433 1434 1437 1436 1438 1433 1429 1419 1420 1422 1426 1430 1433 1436 1439 1442 1444 1447 1449 1451 1454 1456 1458 1460 1462 1463 1465 1467 1468 1469 1470 1470 1471 1471 1470 1470 1469
1419 1425 1430 1428 1426 1426 1426 1427 1431 1439 1439 1434 1435 1436 1420 1420 1423 1427 1430 1434 1437 1440 1442 1444 1447 1449 1450 1452 1454 1456 1458 1459 1460 1462 1464 1465 1466 1466 1466 1467 1467 1466 1465 1464
1421 1426 1431 1433 1434 1432 1430 1428 1428 1432 1434 1435 1437 1435 1424 1424 1426 1429 1432 1435 1438 1440 1442 1444 1446 1448 1450 1451 1453 1454 1456 1457 1458 1459 1460 1461 1462 1462 1463 1463 1462 1462 1461 1460
1420 1425 1426 1426 1422 1426 1429 1428 1428 1432 1437 1434 1428 1428 1427 1427 1429 1431 1433 1436 1438 1441 1443 1444 1446 1448 1449 1450 1451 1453 1454 1455 1456 1457 1458 1458 1459 1459 1459 1458 1458 1457 1456 1455
1421 1425 1423 1419 1416 1418 1422 1424 1426 1430 1429 1432 1425 1424 1425 1427 1429 1431 1434 1436 1439 1441 1443 1444 1446 1447 1448 1449 1450 1451 1452 1453 1454 1454 1455 1455 1455 1455 1455 1454 1453 1453 1452 1450
1422 1424 1423 1422 1418 1418 1420 1420 1422 1424 1425 1425 1425 1426 1424 1425 1428 1431 1433 1436 1439 1441 1443 1444 1445 1446 1447 1448 1449 1449 1450 1451 1451 1452 1452 1452 1452 1452 1451 1450 1449 1448 1447 1445
1424 1425 1425 1424 1422 1422 1426 1421 1420 1422 1421 1423 1427 1427 1427 1428 1430 1431 1433 1436 1438 1440 1442 1443 1444 1445 1446 1446 1447 1447 1448 1448 1449 1449 1449 1449 1448 1448 1447 1446 1445 1444 1442 1441
1424 1425 1425 1425 1425 1429 1423 1417 1416 1419 1422 1423 1425 1426 1427 1429 1431 1433 1434 1436 1438 1440 1441 1442 1443 1444 1445 1445 1446 1446 1446 1446 1446 1446 1446 1446 1445 1444 1443 1442 1441 1440 1438 1436
1421 1424 1425 1425 1424 1422 1420 1419 1419 1421 1424 1425 1425 1426 1428 1429 1430 1434 1435 1436 1437 1439 1440 1441 1442 1443 1443 1443 1444 1444 1444 1444 1444 1443 1443 1443 1442 1441 1440 1438 1437 1436 1434 1432
1420 1423 1426 1424 1423 1423 1423 1419 1417 1420 1427 1425 1425 1426 1428 1428 1434 1437 1436 1436 1437 1438 1439 1440 1440 1441 1441 1442 1442 1442 1442 1441 1441 1441 1440 1440 1439 1438 1436 1435 1434 1432 1430 1428
1424 1425 1426 1425 1425 1425 1424 1420 1418 1428 1430 1426 1425 1426 1427 1430 1433 1435 1435 1436 1437 1437 1438 1439 1439 1439 1440 1440 1440 1440 1440 1439 1439 1438 1438 1437 1436 1435 1433 1432 1430 1429 1427 1425
1423 1424 1426 1424 1427 1431 1425 1423 1426 1428 1426 1426 1426 1427 1428 1430 1432 1433 1434 1435 1436 1437 1437 1437 1437 1438 1438 1438 1438 1438 1438 1438 1437 1436 1435 1434 1433 1431 1430 1428 1426 1425 1423 1421
1421 1423 1423 1426 1429 1426 1425 1425 1426 1426 1427 1427 1427 1428 1429 1430 1432 1433 1434 1435 1435 1436 1436 1437 1437 1437 1437 1437 1437 1436 1436 1435 1434 1433 1432 1431 1429 1428 1426 1425 1423 1421 1419 1417
1420 1419 1422 1425 1425 1426 1427 1427 1427 1427 1428 1428 1429 1429 1430 1431 1432 1433 1434 1434 1435 1435 1436 1436 1436 1435 1435 1436 1435 1435 1434 1433 1432 1430 1429 1427 1426 1424 1423 1421 1420 1418 1416 1414
1421 1421 1423 1425 1427 1427 1427 1428 1428 1428 1429 1429 1430 1430 1431 1431 1432 1433 1433 1434 1434 1434 1435 1435 1435 1434 1434 1434 1433 1432 1431 1430 1428 1427 1425 1424 1422 1421 1419 1418 1416 1415 1413 1412
1425 1425 1425 1427 1427 1428 1429 1429 1429 1428 1429 1430 1430 1430 1431 1431 1432 1432 1433 1433 1433 1433 1433 1433 1433 1433 1432 1431 1431 1430 1429 1427 1425 1424 1422 1421 1419 1417 1416 1414 1412 1411 1410 1408